timestamp,wind_dir_avg,wind_spd_avg,wind_spd_max_dir,wind_spd_gust,battery_voltage,lat,long
2022-09-20 00:04:00+00:00,42.0,6.23,42.0,6.57,12.57,47.59359,-54.27349
2022-09-20 00:14:01+00:00,41.0,4.94,38.0,5.66,12.57,47.59359,-54.27349
2022-09-20 00:24:01+00:00,42.0,5.23,43.0,5.66,12.57,47.59359,-54.27349
2022-09-20 00:34:01+00:00,53.0,5.08,49.0,5.7,12.57,47.59359,-54.27349
2022-09-20 00:44:01+00:00,42.0,5.39,40.0,6.11,12.57,47.59359,-54.27349
2022-09-20 00:54:01+00:00,54.0,4.94,47.0,5.68,12.57,47.59359,-54.27349
2022-09-20 01:04:01+00:00,53.0,4.72,48.0,5.27,12.57,47.59359,-54.27349
2022-09-20 01:14:01+00:00,53.0,4.86,49.0,5.41,12.57,47.59359,-54.27349
2022-09-20 01:24:01+00:00,44.0,4.88,42.0,5.44,12.57,47.59359,-54.27349
2022-09-20 01:34:01+00:00,54.0,4.42,54.0,4.79,12.57,47.59359,-54.27349
2022-09-20 01:44:01+00:00,59.0,4.11,56.0,4.66,12.57,47.59359,-54.27349
2022-09-20 01:54:01+00:00,44.0,3.95,42.0,4.57,12.57,47.59359,-54.27349
2022-09-20 02:04:01+00:00,35.0,4.58,39.0,5.4,12.57,47.59359,-54.27349
2022-09-20 02:14:00+00:00,46.0,5.04,45.0,5.5,12.49,47.59359,-54.27349
2022-09-20 02:24:00+00:00,56.0,3.95,54.0,4.5,12.49,47.59359,-54.27349
2022-09-20 02:34:00+00:00,43.0,4.71,42.0,5.26,12.49,47.59359,-54.27349
2022-09-20 02:44:00+00:00,54.0,4.74,50.0,5.28,12.49,47.59359,-54.27349
2022-09-20 02:54:00+00:00,50.0,4.82,47.0,5.82,12.49,47.59359,-54.27349
2022-09-20 03:04:00+00:00,42.0,5.27,40.0,5.92,12.49,47.59359,-54.27349
2022-09-20 03:14:01+00:00,33.0,5.47,33.0,6.0,12.49,47.59359,-54.27349
2022-09-20 03:24:01+00:00,32.0,5.55,34.0,6.06,12.49,47.59359,-54.27349
2022-09-20 03:34:01+00:00,38.0,6.0,38.0,6.77,12.49,47.59359,-54.27349
2022-09-20 03:44:01+00:00,43.0,5.97,46.0,6.49,12.49,47.59359,-54.27349
2022-09-20 03:54:01+00:00,48.0,5.41,49.0,6.24,12.49,47.59359,-54.27349
2022-09-20 04:04:01+00:00,52.0,5.83,57.0,6.61,12.49,47.59359,-54.27349
2022-09-20 04:14:01+00:00,55.0,5.88,55.0,6.32,12.49,47.59359,-54.27349
2022-09-20 04:24:01+00:00,54.0,5.78,63.0,7.09,12.49,47.59359,-54.27349
2022-09-20 04:34:01+00:00,46.0,6.74,46.0,7.45,12.49,47.59359,-54.27349
2022-09-20 04:44:01+00:00,51.0,6.17,50.0,6.86,12.49,47.59359,-54.27349
2022-09-20 04:54:01+00:00,49.0,5.47,46.0,5.91,12.49,47.59359,-54.27349
2022-09-20 05:04:01+00:00,50.0,5.6,50.0,6.23,12.49,47.59359,-54.27349
2022-09-20 05:14:01+00:00,48.0,5.62,47.0,6.25,12.49,47.59359,-54.27349
2022-09-20 05:24:01+00:00,50.0,5.7,50.0,6.32,12.49,47.59359,-54.27349
2022-09-20 05:34:01+00:00,44.0,5.92,45.0,6.29,12.49,47.59359,-54.27349
2022-09-20 05:44:01+00:00,49.0,5.46,45.0,6.28,12.49,47.59359,-54.27349
2022-09-20 05:54:01+00:00,47.0,5.83,44.0,6.53,12.49,47.59359,-54.27349
2022-09-20 06:04:01+00:00,35.0,6.29,34.0,7.25,12.49,47.59359,-54.27349
2022-09-20 06:14:01+00:00,42.0,5.91,45.0,6.44,12.41,47.59359,-54.27349
2022-09-20 06:24:01+00:00,40.0,5.75,45.0,6.3,12.41,47.59359,-54.27349
2022-09-20 06:34:01+00:00,51.0,5.69,49.0,6.51,12.41,47.59359,-54.27349
2022-09-20 06:44:01+00:00,42.0,6.09,43.0,7.22,12.41,47.59359,-54.27349
2022-09-20 06:54:01+00:00,42.0,5.45,45.0,6.21,12.41,47.59359,-54.27349
2022-09-20 07:04:01+00:00,53.0,5.59,50.0,6.16,12.41,47.59359,-54.27349
2022-09-20 07:14:01+00:00,34.0,6.17,32.0,7.04,12.41,47.59359,-54.27349
2022-09-20 07:24:01+00:00,41.0,5.99,35.0,6.47,12.41,47.59359,-54.27349
2022-09-20 07:34:01+00:00,39.0,5.5,37.0,6.27,12.41,47.59359,-54.27349
2022-09-20 07:44:01+00:00,47.0,5.78,48.0,6.55,12.41,47.59359,-54.27349
2022-09-20 07:54:01+00:00,43.0,5.51,36.0,6.97,12.41,47.59359,-54.27349
2022-09-20 08:04:01+00:00,43.0,5.64,44.0,6.4,12.41,47.59359,-54.27349
2022-09-20 08:14:01+00:00,36.0,5.91,35.0,6.58,12.33,47.59359,-54.27349
2022-09-20 08:24:01+00:00,35.0,6.11,35.0,6.67,12.33,47.59359,-54.27349
2022-09-20 08:34:01+00:00,44.0,5.67,41.0,6.47,12.33,47.59359,-54.27349
2022-09-20 08:44:01+00:00,43.0,6.13,44.0,6.93,12.33,47.59359,-54.27349
2022-09-20 08:54:01+00:00,38.0,5.29,34.0,6.22,12.33,47.59359,-54.27349
2022-09-20 09:04:01+00:00,47.0,4.59,44.0,5.13,12.33,47.59359,-54.27349
2022-09-20 09:14:00+00:00,39.0,4.31,31.0,5.17,12.33,47.59359,-54.27349
2022-09-20 09:24:00+00:00,37.0,4.76,39.0,5.46,12.33,47.59359,-54.27349
2022-09-20 09:34:00+00:00,36.0,4.74,37.0,5.36,12.33,47.59359,-54.27349
2022-09-20 09:44:00+00:00,36.0,4.49,30.0,5.27,12.33,47.59359,-54.27349
2022-09-20 09:54:00+00:00,24.0,3.63,15.0,4.16,12.33,47.59359,-54.27349
2022-09-20 10:04:00+00:00,24.0,3.06,26.0,3.68,12.33,47.59359,-54.27349
2022-09-20 10:14:00+00:00,3.0,3.38,5.0,3.95,12.41,47.59359,-54.27349
2022-09-20 10:24:00+00:00,15.0,3.81,19.0,4.14,12.41,47.59359,-54.27349
2022-09-20 10:34:00+00:00,18.0,2.74,18.0,3.06,12.41,47.59359,-54.27349
2022-09-20 10:44:00+00:00,32.0,2.32,30.0,2.76,12.41,47.59359,-54.27349
2022-09-20 10:54:00+00:00,357.0,3.4,6.0,4.67,12.41,47.59359,-54.27349
2022-09-20 11:04:00+00:00,0.0,3.14,5.0,3.54,12.41,47.59359,-54.27349
2022-09-20 11:14:00+00:00,357.0,2.8,354.0,3.18,13.53,47.59359,-54.27349
2022-09-20 11:24:00+00:00,16.0,2.89,12.0,3.47,13.53,47.59359,-54.27349
2022-09-20 11:34:00+00:00,21.0,3.53,25.0,4.29,13.53,47.59359,-54.27349
2022-09-20 11:44:00+00:00,23.0,2.99,21.0,3.62,13.53,47.59359,-54.27349
2022-09-20 11:54:00+00:00,33.0,2.93,32.0,3.27,13.53,47.59359,-54.27349
2022-09-20 12:04:00+00:00,2.0,3.69,6.0,4.55,13.53,47.59359,-54.27349
2022-09-20 12:14:01+00:00,10.0,3.53,13.0,4.19,14.24,47.59359,-54.27349
2022-09-20 12:24:01+00:00,0.0,4.58,1.0,5.31,14.24,47.59359,-54.27349
2022-09-20 12:34:01+00:00,5.0,4.6,1.0,5.22,14.24,47.59359,-54.27349
2022-09-20 12:44:01+00:00,12.0,4.1,20.0,4.87,14.24,47.59359,-54.27349
2022-09-20 12:54:01+00:00,11.0,3.73,17.0,4.96,14.24,47.59359,-54.27349
2022-09-20 13:04:01+00:00,21.0,3.4,18.0,3.96,14.24,47.59359,-54.27349
2022-09-20 13:14:00+00:00,6.0,4.43,4.0,5.54,13.6,47.59359,-54.27349
2022-09-20 13:24:00+00:00,4.0,4.18,359.0,4.84,13.6,47.59359,-54.27349
2022-09-20 13:34:00+00:00,17.0,4.18,26.0,4.94,13.6,47.59359,-54.27349
2022-09-20 13:44:00+00:00,20.0,5.62,13.0,6.25,13.6,47.59359,-54.27349
2022-09-20 13:54:00+00:00,16.0,4.8,13.0,5.81,13.6,47.59359,-54.27349
2022-09-20 14:04:00+00:00,2.0,3.26,358.0,3.67,13.6,47.59359,-54.27349
2022-09-20 14:14:00+00:00,2.0,3.47,359.0,4.22,13.92,47.59359,-54.27349
2022-09-20 14:24:00+00:00,359.0,2.58,359.0,2.92,13.92,47.59359,-54.27349
2022-09-20 14:34:00+00:00,36.0,3.48,41.0,4.11,13.92,47.59359,-54.27349
2022-09-20 14:44:00+00:00,70.0,3.57,64.0,3.9,13.92,47.59359,-54.27349
2022-09-20 14:54:00+00:00,62.0,3.37,57.0,3.71,13.92,47.59359,-54.27349
2022-09-20 15:04:00+00:00,60.0,3.66,60.0,4.09,13.92,47.59359,-54.27349
2022-09-20 15:14:00+00:00,74.0,3.47,74.0,3.75,14.16,47.59359,-54.27349
2022-09-20 15:24:00+00:00,68.0,3.64,66.0,4.43,14.16,47.59359,-54.27349
2022-09-20 15:34:00+00:00,67.0,3.67,58.0,4.02,14.16,47.59359,-54.27349
2022-09-20 15:44:00+00:00,71.0,3.11,72.0,3.64,14.16,47.59359,-54.27349
2022-09-20 15:54:00+00:00,81.0,2.72,89.0,3.43,14.16,47.59359,-54.27349
2022-09-20 16:04:00+00:00,71.0,3.92,70.0,4.27,14.16,47.59359,-54.27349
2022-09-20 16:14:00+00:00,70.0,3.49,65.0,3.83,13.6,47.59359,-54.27349
2022-09-20 16:24:00+00:00,68.0,3.34,69.0,3.72,13.6,47.59359,-54.27349
2022-09-20 16:34:00+00:00,67.0,3.22,69.0,3.47,13.6,47.59359,-54.27349
2022-09-20 16:44:00+00:00,76.0,2.34,67.0,2.97,13.6,47.59359,-54.27349
2022-09-20 16:54:00+00:00,73.0,2.93,76.0,3.35,13.6,47.59359,-54.27349
2022-09-20 17:04:00+00:00,69.0,2.77,62.0,3.13,13.6,47.59359,-54.27349
2022-09-20 17:14:01+00:00,68.0,2.87,66.0,3.38,13.76,47.59359,-54.27349
2022-09-20 17:24:01+00:00,70.0,3.35,56.0,3.61,13.76,47.59359,-54.27349
2022-09-20 17:34:01+00:00,63.0,3.15,67.0,3.58,13.76,47.59359,-54.27349
2022-09-20 17:44:01+00:00,67.0,2.98,65.0,3.39,13.76,47.59359,-54.27349
2022-09-20 17:54:01+00:00,69.0,3.61,70.0,3.96,13.76,47.59359,-54.27349
2022-09-20 18:04:01+00:00,70.0,3.11,71.0,3.4,13.76,47.59359,-54.27349
2022-09-20 18:14:00+00:00,66.0,2.96,64.0,3.83,14.24,47.59359,-54.27349
2022-09-20 18:24:00+00:00,71.0,2.89,105.0,3.65,14.24,47.59359,-54.27349
2022-09-20 18:34:00+00:00,66.0,2.27,68.0,3.2,14.24,47.59359,-54.27349
2022-09-20 18:44:00+00:00,78.0,2.16,84.0,3.22,14.24,47.59359,-54.27349
2022-09-20 18:54:00+00:00,122.0,1.82,125.0,2.37,14.24,47.59359,-54.27349
2022-09-20 19:04:00+00:00,56.0,1.79,63.0,2.82,14.24,47.59359,-54.27349
2022-09-20 19:14:01+00:00,70.0,1.43,61.0,2.1,13.76,47.59359,-54.27349
2022-09-20 19:24:01+00:00,51.0,1.63,48.0,1.88,13.76,47.59359,-54.27349
2022-09-20 19:34:01+00:00,55.0,1.75,60.0,2.59,13.76,47.59359,-54.27349
2022-09-20 19:44:01+00:00,64.0,0.37,28.0,0.94,13.76,47.59359,-54.27349
2022-09-20 19:54:01+00:00,160.0,0.6,162.0,0.74,13.76,47.59359,-54.27349
2022-09-20 20:04:01+00:00,222.0,1.64,227.0,2.12,13.76,47.59359,-54.27349
2022-09-20 20:14:00+00:00,222.0,3.05,222.0,3.51,13.76,47.59359,-54.27349
2022-09-20 20:24:00+00:00,212.0,4.81,209.0,5.11,13.76,47.59359,-54.27349
2022-09-20 20:34:00+00:00,219.0,4.35,216.0,4.67,13.76,47.59359,-54.27349
2022-09-20 20:44:00+00:00,217.0,5.0,218.0,5.25,13.76,47.59359,-54.27349
2022-09-20 20:54:00+00:00,219.0,3.93,218.0,4.27,13.76,47.59359,-54.27349
2022-09-20 21:04:00+00:00,220.0,4.35,220.0,4.72,13.76,47.59359,-54.27349
2022-09-20 21:14:00+00:00,219.0,4.23,219.0,4.63,13.29,47.59359,-54.27349
2022-09-20 21:24:00+00:00,215.0,4.47,214.0,4.87,13.29,47.59359,-54.27349
2022-09-20 21:34:00+00:00,222.0,4.04,220.0,4.52,13.29,47.59359,-54.27349
2022-09-20 21:44:00+00:00,220.0,3.63,220.0,4.07,13.29,47.59359,-54.27349
2022-09-20 21:54:00+00:00,222.0,3.67,224.0,4.03,13.29,47.59359,-54.27349
2022-09-20 22:04:00+00:00,229.0,2.71,232.0,3.28,13.29,47.59359,-54.27349
2022-09-20 22:14:01+00:00,234.0,2.75,231.0,3.05,12.73,47.59359,-54.27349
2022-09-20 22:24:01+00:00,231.0,2.17,232.0,2.59,12.73,47.59359,-54.27349
2022-09-20 22:34:01+00:00,218.0,1.73,218.0,2.02,12.73,47.59359,-54.27349
2022-09-20 22:44:01+00:00,196.0,2.79,197.0,3.14,12.73,47.59359,-54.27349
2022-09-20 22:54:01+00:00,211.0,2.63,211.0,2.96,12.73,47.59359,-54.27349
2022-09-20 23:04:01+00:00,213.0,2.19,216.0,2.48,12.73,47.59359,-54.27349
2022-09-20 23:14:00+00:00,230.0,1.39,218.0,1.58,12.57,47.59359,-54.27349
2022-09-20 23:24:00+00:00,210.0,1.17,202.0,1.33,12.57,47.59359,-54.27349
2022-09-20 23:34:00+00:00,226.0,1.42,228.0,1.63,12.57,47.59359,-54.27349
2022-09-20 23:44:00+00:00,234.0,1.15,229.0,1.35,12.57,47.59359,-54.27349
2022-09-20 23:54:00+00:00,229.0,0.73,229.0,0.81,12.57,47.59359,-54.27349
